LEMUR-2-ALEX-MADDY (44407 NORAD) Tracking and Keplerian Element Data

This shows tracking and keplerian element data for the satellite.

Feedback or suggestion? Click here.




ElementValue
Catalog44407
NameLEMUR-2-ALEX-MADDY
Epoch Orbit186
Epoch Day198.87622304
Epoch Year2019
RAAN160.5798
Inclination97.4912
Eccentricity0.0023031
Argument of Perigee203.1867
Mean Anonmoly156.8327
Mean Motion15.11767818
Decay Rate3.6E-06
L11 44407U 19038X 19198.87622304 .00000360 00000-0 24814-4 0 9992
L22 44407 97.4912 160.5798 0023031 203.1867 156.8327 15.11767818 1867

Live tracking and technical data element details for LEMUR-2-ALEX-MADDY (NORAD 44407). LEMUR-2-ALEX-MADDY can be tracked NOW for your location showing map with azimuth and elevation plus other details from your city location.

Track the satellite on the map from your city or location and see movement details for azimuth, elevation, latitude, longitude, range, height, and movement on the map or in text.







IsCatalogInMostPopularTable: catalog: 44407, numindb: 1
Update: records affected: 1



GetName: 44407 LEMUR-2-ALEX-MADDY

Hit Count: updated at: Fri, 19 Jul 2019 08:38:28 GMT